ECMWFFLT1_sfc_temp_132.txt.gz
Temp
54 53 51 48 46 46 47 48 47 49 50 53 54 56 57 58 59 58 59 60 61 61 60 59 59 60 60 60 60 60 58 58 58 58 59 58 56 55 56 55 56 56 56 57 57 57 57 58 58 58 58 59 58 58 58 59 59 59 58 59 58 58
52 50 49 48 45 44 43 43 42 46 49 50 51 53 53 54 55 56 57 58 59 60 59 59 60 60 60 59 59 58 58 59 58 58 57 58 55 56 57 56 56 56 55 55 56 57 57 58 58 58 59 59 59 59 59 59 59 59 58 58 58 59
47 45 41 41 38 37 37 39 43 44 44 47 49 52 52 52 54 55 56 56 57 57 58 58 59 59 59 59 59 58 59 59 57 58 58 57 57 57 56 56 57 57 56 56 56 57 57 58 58 59 59 59 59 59 59 59 59 58 58 57 57 57
44 40 37 34 34 37 38 38 37 39 42 45 46 47 50 51 52 53 55 54 56 56 57 58 58 58 58 58 59 58 59 59 58 58 57 57 58 56 56 56 57 56 56 56 57 57 58 59 60 59 59 59 59 59 59 59 58 58 58 57 57 57
40 38 36 37 37 38 36 36 38 40 40 41 41 45 47 48 50 49 50 52 53 54 55 55 56 56 56 57 58 57 58 58 58 57 57 56 55 53 56 56 55 56 56 56 56 58 58 59 59 59 59 58 59 58 58 58 58 57 57 57 56 56
36 37 40 40 39 37 38 38 38 38 38 39 40 42 44 43 45 45 47 49 51 52 51 52 53 52 53 54 56 56 56 57 56 55 55 56 54 53 53 55 56 55 54 55 55 56 57 57 57 58 58 59 58 58 58 57 57 57 56 56 55 53
39 42 41 40 39 37 37 38 39 39 39 37 39 41 40 41 41 42 45 45 47 47 48 50 50 51 52 53 54 54 54 54 53 52 53 54 53 54 53 52 53 53 54 55 55 56 56 56 57 57 58 58 57 57 58 58 57 55 55 55 56 51
40 38 39 39 38 39 39 38 38 38 38 39 38 40 37 37 34 37 41 42 44 46 46 48 48 49 51 52 52 52 51 50 49 51 51 52 54 53 52 53 52 53 55 55 56 56 56 56 56 56 57 57 57 56 55 54 54 54 55 55 55 54
42 44 41 40 39 37 37 36 38 37 37 39 37 37 36 35 34 35 37 38 40 43 45 46 47 48 48 48 48 47 47 48 47 48 51 49 51 52 52 51 53 52 54 55 55 55 56 56 55 56 56 56 56 56 56 55 54 53 52 53 53 51
45 44 45 42 40 36 36 36 36 38 38 40 37 36 35 35 34 35 35 37 37 39 42 42 42 43 45 45 45 46 46 46 46 47 47 45 48 50 51 51 52 52 52 54 54 55 54 55 55 55 55 55 55 54 53 53 53 52 51 47 45 45
48 47 44 41 37 38 37 37 36 35 36 36 36 34 36 35 35 37 37 37 38 40 39 38 40 42 43 43 44 44 45 45 45 44 45 46 47 48 48 50 51 51 51 51 52 53 53 53 54 54 53 53 53 53 53 53 52 50 48 45 44 43
45 45 42 41 39 39 39 39 39 38 38 38 36 36 37 35 36 38 38 38 39 39 37 38 40 41 42 43 44 45 43 43 42 43 42 44 45 46 46 47 48 49 50 50 50 50 51 51 52 47 47 48 52 51 51 50 47 45 45 43 41 39
44 42 43 45 44 42 42 42 42 38 37 38 38 37 37 36 36 37 39 40 40 38 37 38 39 39 41 43 43 42 42 42 41 41 42 42 42 43 42 44 46 47 48 49 49 48 48 48 48 45 46 46 47 49 49 49 47 44 43 43 42 42
47 47 47 47 46 43 41 42 42 38 41 42 40 37 35 36 37 37 38 40 40 39 40 39 39 39 40 41 42 41 40 39 39 40 40 40 39 39 39 41 44 45 44 46 45 46 46 46 43 45 45 45 45 45 47 46 45 43 42 41 41 40
50 50 49 47 48 48 46 44 41 43 46 45 42 36 36 37 37 37 38 40 40 40 40 39 39 39 39 40 40 40 39 39 39 40 40 40 39 37 39 41 41 42 41 43 43 43 42 42 42 43 44 44 44 44 45 42 42 41 40 40 40 39
51 51 49 48 48 48 49 44 44 46 43 41 39 36 38 37 38 38 39 39 40 40 39 39 39 39 39 38 38 38 39 40 41 40 39 39 37 38 39 38 39 39 39 41 42 42 40 40 40 43 43 42 43 43 44 42 41 40 40 39 39 39
54 52 51 50 49 47 44 42 40 40 39 39 39 37 37 37 38 38 39 39 39 39 39 39 39 39 39 38 38 38 38 39 39 39 39 39 39 39 40 39 39 38 38 38 39 39 39 39 39 42 42 42 42 43 43 40 39 39 38 38 39 39
53 54 57 59 55 49 45 48 44 40 43 39 39 37 37 37 38 39 38 39 39 39 39 39 39 39 38 38 37 37 38 38 38 38 37 37 38 37 38 38 38 38 37 37 38 39 39 38 39 41 41 42 42 43 40 39 39 38 38 37 37 37
52 54 54 54 56 54 49 45 41 42 42 39 39 37 37 36 37 38 38 38 39 39 39 39 40 39 38 37 37 37 37 37 37 37 36 37 37 37 37 38 37 37 38 37 37 39 40 38 38 40 40 41 42 41 38 38 37 37 36 36 35 36
53 51 51 52 53 52 49 45 43 42 41 40 38 37 37 37 38 39 38 39 39 39 39 39 39 39 37 37 37 37 37 37 36 37 36 38 37 37 37 37 36 36 37 37 37 38 39 38 37 38 40 40 41 39 37 37 37 35 35 34 34 35
52 50 46 45 48 53 52 43 41 41 42 41 40 38 38 38 39 39 39 40 41 39 38 38 38 38 37 37 37 37 36 36 36 35 35 36 37 37 37 36 37 36 35 36 37 35 37 37 36 37 39 40 41 38 36 37 36 35 34 34 33 34
44 47 47 47 50 51 50 43 40 40 41 42 40 39 40 40 40 41 42 42 39 37 37 38 37 37 37 36 36 36 36 36 36 36 35 35 36 36 36 36 36 36 36 35 35 35 36 36 36 36 39 39 40 39 37 37 37 35 34 34 34 33
43 46 47 49 48 48 46 42 40 42 41 40 39 40 42 43 43 42 42 39 36 37 37 37 37 37 37 36 36 36 36 36 36 36 35 35 35 35 35 35 35 35 35 34 34 35 35 35 35 35 38 39 40 39 38 36 37 36 35 34 34 34
43 43 43 44 46 45 44 41 42 42 43 40 40 43 45 43 43 42 40 38 37 37 36 36 36 36 36 36 36 35 36 35 35 35 36 36 36 35 35 35 35 35 35 34 34 34 34 34 34 35 36 38 39 39 39 37 36 36 35 34 34 34
44 45 45 47 44 44 43 41 41 43 42 42 45 47 45 43 42 41 39 38 37 36 36 36 36 36 36 36 36 36 36 35 35 35 35 35 35 35 35 35 34 35 35 34 34 34 34 34 34 34 35 37 39 39 39 38 37 38 36 35 34 34
44 44 45 45 44 43 41 41 41 42 42 44 48 45 42 41 40 38 37 37 36 36 35 35 35 36 36 36 36 36 35 35 35 35 35 35 36 36 36 35 34 35 35 34 33 33 33 33 34 33 34 35 38 39 39 39 37 37 35 36 35 34
44 45 44 44 42 43 41 40 40 41 41 46 47 42 42 40 38 37 37 37 36 36 36 35 35 36 36 36 36 36 36 35 34 35 35 35 35 36 36 36 35 35 35 35 34 33 33 33 33 34 34 34 36 38 39 38 37 37 37 34 32 34
41 40 40 42 42 42 41 40 39 40 43 47 45 43 40 38 37 37 37 37 36 35 35 35 35 35 35 35 36 36 37 36 35 36 35 35 36 36 36 36 35 35 35 35 34 34 33 33 33 33 33 33 34 35 37 37 36 35 35 34 33 33
43 42 41 41 44 42 41 41 40 40 43 42 43 40 38 37 37 37 37 36 36 35 35 35 35 35 35 35 36 36 36 36 36 36 35 35 36 36 36 36 35 35 35 35 34 34 33 32 32 33 33 34 34 35 35 35 34 34 33 32 32 32
41 41 41 42 45 44 43 41 40 40 40 40 39 38 36 37 37 37 37 36 36 35 35 35 35 35 35 35 36 36 36 36 36 36 36 36 36 36 36 36 36 36 36 35 34 33 32 32 32 33 33 33 34 34 35 34 34 33 33 32 32 32
41 41 41 43 45 43 41 41 41 40 40 39 38 36 36 37 36 36 36 36 35 34 35 35 35 36 36 35 35 36 37 36 36 37 37 37 38 38 38 37 36 36 36 36 35 33 31 32 32 33 35 35 35 35 34 34 33 33 33 32 32 30
39 39 40 43 44 41 40 41 41 40 39 37 36 36 36 36 36 35 36 35 35 35 35 35 35 35 36 36 35 36 36 35 36 36 37 36 35 36 36 37 37 37 36 36 36 36 36 34 35 36 35 35 35 36 36 35 35 35 33 33 33 31
40 39 40 42 42 41 40 40 40 40 38 36 36 35 36 36 36 36 35 34 35 35 35 35 35 35 36 36 36 36 35 35 34 35 36 36 35 35 36 36 37 37 37 37 36 35 35 36 36 36 35 35 36 36 36 35 35 34 34 34 31 29
40 41 42 44 42 41 40 40 40 39 37 35 35 35 35 36 36 37 36 35 35 35 35 35 35 35 35 35 36 35 35 35 33 32 34 35 35 35 35 36 36 36 36 37 36 35 34 34 35 35 35 35 35 35 35 35 35 35 35 34 34 28
43 44 43 42 41 41 41 40 40 39 36 34 34 35 35 35 36 37 37 36 35 35 35 35 35 35 35 35 35 35 35 35 34 32 30 31 33 34 34 35 35 35 35 36 35 36 35 34 34 35 35 35 35 35 35 35 35 35 35 34 30 26
42 41 42 41 41 41 40 40 40 40 37 34 34 34 35 35 36 37 38 37 35 35 35 35 35 35 35 36 36 36 35 35 35 35 33 30 29 31 32 33 34 34 35 35 35 35 34 34 34 34 34 34 34 35 35 35 34 35 35 33 27 26
40 40 40 39 39 39 39 39 40 39 35 34 34 34 34 35 35 36 34 33 33 35 35 35 36 36 36 36 35 35 35 35 35 35 34 32 30 30 29 30 31 33 34 34 34 34 34 34 34 34 34 34 34 35 35 35 32 31 31 29 22 23
39 40 40 40 39 39 39 39 40 35 33 33 34 34 34 34 35 35 35 34 34 35 35 35 35 36 36 36 36 36 36 35 35 34 34 33 32 32 30 29 30 30 31 33 33 33 33 33 33 33 34 34 34 35 35 30 29 29 28 25 21 19

ECMWFFLT1_sfc_temp_138.txt.gz
Temp
67 66 66 67 66 64 64 64 63 62 62 63 64 64 66 67 68 68 69 69 68 68 69 69 69 70 70 70 70 70 69 69 70 70 70 71 70 70 69 68 68 68 67 67 68 68 68 68 68 68 67 66 65 65 65 66 65 64 63 64 64 64
66 66 66 66 65 63 62 62 60 60 61 61 61 63 64 65 66 67 67 68 69 68 69 69 70 70 69 70 69 69 69 69 69 69 69 69 70 70 69 69 68 67 67 66 66 67 68 67 68 68 67 66 65 65 65 66 65 63 63 63 63 62
65 65 65 62 59 58 57 57 58 59 60 59 60 60 62 63 64 66 66 68 67 67 67 68 69 68 69 69 69 69 69 69 69 70 70 70 69 70 68 68 68 67 67 66 66 66 67 67 67 67 67 66 65 65 65 65 64 63 62 62 61 61
66 66 63 58 57 57 58 57 56 56 56 58 59 59 60 62 63 64 65 66 67 67 67 68 69 69 69 68 68 67 68 68 68 69 69 68 69 69 68 68 67 67 67 66 66 66 66 67 67 67 66 65 63 64 64 64 63 62 62 61 59 60
63 62 58 57 57 57 58 57 56 56 56 56 57 57 59 60 62 63 64 64 65 66 66 67 67 68 67 67 67 67 67 68 68 69 67 67 68 69 68 67 67 66 66 66 65 66 66 66 66 67 66 65 64 63 62 62 62 61 59 58 58 58
61 60 61 61 61 60 59 57 55 55 54 54 55 56 57 58 59 60 61 62 63 64 65 65 66 66 66 65 66 66 67 67 67 68 67 67 67 67 67 67 67 66 66 65 65 65 65 65 65 65 65 65 64 63 62 61 61 60 59 58 58 58
60 62 61 59 59 59 58 56 55 55 54 54 54 54 56 56 57 57 58 60 61 62 62 63 64 63 64 64 65 65 66 66 67 67 66 66 66 67 67 66 66 66 65 64 64 65 65 65 65 65 65 64 64 63 61 61 60 59 58 58 59 53
60 60 61 61 60 58 58 57 56 55 54 54 54 54 54 54 54 55 56 57 58 59 60 61 61 62 62 63 64 64 65 65 66 65 65 64 65 65 65 65 64 63 63 64 64 64 64 64 64 63 63 62 61 60 60 60 59 59 59 58 58 59
63 64 63 64 63 58 56 55 56 55 55 54 53 52 52 53 52 52 53 54 55 57 58 59 60 61 61 61 62 63 63 63 64 64 63 62 61 61 61 61 61 60 61 62 62 62 62 62 61 60 60 60 60 59 58 58 58 58 58 58 58 58
61 62 64 65 66 63 58 55 55 55 55 55 55 52 50 49 50 51 51 52 53 55 56 59 59 59 59 60 60 60 60 60 61 62 62 60 59 59 59 59 58 58 58 59 60 60 60 60 59 59 59 59 59 58 57 58 57 57 57 57 58 58
62 62 64 65 64 64 65 63 61 57 57 56 53 51 51 52 50 51 51 51 52 54 56 56 56 56 56 56 57 57 58 58 58 58 57 56 56 57 58 59 58 57 56 56 57 58 58 58 58 58 58 58 57 58 57 57 57 56 56 56 56 56
66 64 63 63 64 65 66 69 69 66 62 61 58 54 53 50 50 50 51 51 53 54 55 55 54 53 53 54 54 54 55 55 54 53 53 52 53 55 55 56 56 56 56 56 55 56 56 56 57 52 49 50 56 57 57 57 56 56 56 55 53 51
67 68 66 64 63 64 65 66 66 64 62 61 60 58 54 51 51 51 51 52 54 54 53 52 52 51 51 51 52 52 51 51 50 50 50 50 50 51 52 52 53 54 55 55 55 54 55 56 55 48 49 48 49 54 57 56 56 55 55 54 52 51
66 66 67 68 66 63 63 64 64 63 63 62 60 58 54 51 51 52 53 53 53 53 52 52 51 49 49 48 48 48 48 47 46 45 46 46 46 47 46 48 51 52 53 53 53 54 54 54 48 48 48 47 47 47 54 56 56 55 55 52 50 50
65 66 66 65 64 63 61 61 60 61 62 61 60 55 53 53 53 53 53 54 54 55 54 54 52 52 51 50 47 46 45 44 43 43 44 44 45 45 45 47 48 49 50 51 51 52 52 52 48 47 47 47 47 46 48 55 55 54 52 50 49 49
66 66 63 62 62 62 61 60 60 60 59 57 54 53 54 54 54 53 54 54 54 54 54 53 51 50 50 49 46 45 43 42 42 43 44 44 44 44 44 45 45 46 47 48 49 50 50 49 46 46 46 45 45 46 46 52 54 52 50 49 48 48
62 62 61 61 60 59 59 58 58 57 55 54 53 53 53 54 54 54 54 54 54 53 52 51 49 49 49 48 46 44 42 41 41 42 43 43 43 44 44 44 44 45 45 46 46 46 46 49 45 45 44 45 45 45 45 51 51 50 48 48 47 47
60 59 59 59 58 58 58 58 56 54 56 54 53 53 52 53 53 54 54 53 53 53 53 52 51 50 49 47 47 43 42 41 41 41 42 42 42 43 43 43 44 45 44 45 44 44 46 47 44 43 43 44 45 45 46 48 48 48 47 46 45 45
57 57 56 56 56 57 58 56 54 54 54 55 55 52 52 51 52 55 55 54 55 55 54 53 51 49 49 48 45 44 43 42 41 41 42 42 41 42 41 42 43 43 44 43 43 44 46 46 44 42 43 43 43 44 46 45 45 45 45 44 43 43
55 55 54 54 56 59 59 55 52 52 53 54 54 53 52 52 53 55 55 55 55 55 55 53 52 49 49 48 45 43 45 46 43 42 41 41 40 41 42 42 42 43 43 42 43 43 44 45 43 41 42 42 42 43 44 44 44 43 43 43 41 41
51 51 52 55 56 59 57 53 50 51 52 52 53 52 52 52 55 55 56 56 56 55 54 52 50 49 49 46 47 44 43 41 41 41 41 41 41 41 42 41 42 41 40 41 41 38 41 43 41 40 41 41 42 42 44 44 43 43 42 42 41 39
51 53 54 54 56 56 53 51 49 48 49 51 51 50 52 54 55 57 56 55 55 54 53 52 43 48 43 42 42 42 43 42 42 40 40 40 40 41 41 41 41 39 40 40 39 40 40 41 42 42 40 40 41 41 42 43 43 42 41 40 41 39
50 50 52 53 52 51 51 49 48 49 51 50 49 50 53 55 56 55 54 54 53 52 52 52 49 43 42 42 44 43 41 42 42 40 39 39 39 40 40 39 39 39 39 40 39 40 39 41 41 40 39 40 40 41 41 42 43 43 42 41 39 40
49 48 49 50 51 51 50 48 47 48 50 50 49 52 55 55 54 54 53 52 51 51 50 44 43 42 42 41 40 40 40 41 39 39 39 40 40 37 37 37 38 39 39 40 40 39 40 39 37 41 39 39 40 40 41 42 42 43 43 41 40 40
48 49 50 50 50 49 48 45 43 47 47 48 50 53 54 53 52 51 50 49 47 43 41 41 41 41 41 40 39 38 39 40 38 37 37 37 37 37 36 37 37 38 38 39 41 41 40 40 39 37 39 38 39 40 40 41 42 41 41 42 40 40
49 49 49 49 48 46 45 44 44 44 43 47 52 52 50 50 50 49 46 42 43 42 41 40 39 40 40 40 40 40 38 39 39 38 39 38 38 39 37 39 38 38 38 38 40 41 42 41 41 37 36 38 38 39 40 40 41 41 41 42 43 41
46 47 46 47 46 47 47 46 44 40 40 48 51 50 50 48 43 41 40 40 40 40 40 40 40 40 39 39 40 39 40 38 37 38 39 38 38 38 38 39 39 38 39 39 38 40 42 41 41 41 39 35 37 38 40 40 40 41 40 40 42 42
44 43 43 45 44 44 43 44 45 40 45 51 49 50 47 42 39 39 39 39 40 40 39 39 40 39 39 38 40 40 41 41 41 40 40 40 39 39 38 38 38 38 38 39 40 40 41 41 40 39 39 36 35 36 38 39 39 38 38 38 40 37
42 43 44 44 46 47 46 42 42 43 45 46 47 43 41 39 38 38 39 39 40 41 40 40 42 44 43 40 41 41 41 42 42 40 40 41 40 39 39 39 38 39 39 38 39 40 41 41 40 39 38 38 37 37 37 37 38 36 36 37 39 36
41 42 42 45 48 48 46 44 42 45 42 41 40 39 38 38 38 39 40 40 41 42 42 42 40 40 43 43 41 42 42 41 40 41 41 41 41 40 39 39 39 39 39 40 40 40 41 41 41 39 38 39 39 38 38 39 38 37 38 38 38 36
39 41 41 43 46 46 43 42 42 43 41 41 39 38 37 39 39 38 38 39 41 42 42 42 42 43 43 42 41 42 42 43 42 40 41 41 42 43 41 41 41 41 42 42 42 41 40 41 40 40 39 40 38 39 39 38 38 39 38 37 37 35
39 40 40 44 45 44 43 42 43 42 42 40 39 38 38 38 39 39 40 41 42 42 43 43 45 43 42 42 42 41 40 38 38 40 41 41 38 37 38 39 42 43 44 43 43 43 42 42 44 41 39 39 38 38 38 38 39 39 38 36 36 36
40 39 38 42 43 43 41 42 43 42 41 39 39 39 39 38 40 41 42 42 43 43 42 43 42 43 43 42 41 40 41 41 40 37 36 37 38 37 37 37 38 38 39 41 42 41 40 40 40 39 38 38 38 37 37 38 38 38 37 37 36 36
39 40 40 44 42 40 41 41 42 42 41 39 39 38 38 38 39 41 42 43 43 42 43 43 42 41 41 42 42 40 41 40 40 41 38 35 36 36 36 37 36 36 37 37 37 38 41 39 38 38 37 37 37 37 37 37 37 38 37 37 38 36
43 44 44 43 41 40 40 40 41 42 39 39 38 38 37 38 38 38 39 40 41 42 42 41 41 41 41 40 39 39 39 39 40 39 40 39 35 35 36 36 36 36 36 37 37 37 38 39 38 37 36 36 36 36 36 37 37 38 38 37 36 37
43 43 42 40 39 39 39 38 40 39 39 38 38 37 37 37 37 37 40 41 41 41 42 42 41 41 42 41 42 41 40 41 40 40 39 39 40 38 35 34 35 35 36 36 37 37 37 37 38 36 36 36 36 36 36 37 36 38 38 37 36 37
40 39 39 38 37 37 37 37 39 38 38 38 38 37 37 37 37 39 38 36 36 40 39 41 41 41 40 41 41 41 40 39 40 40 39 39 38 38 38 39 37 35 34 35 36 36 36 37 37 37 36 36 36 36 37 37 35 34 35 35 36 37
37 38 38 37 37 37 37 37 39 39 38 38 37 37 36 37 37 38 39 40 39 40 40 40 40 41 41 41 41 40 39 41 40 40 40 39 38 38 38 39 39 39 35 34 35 36 36 36 36 37 36 36 36 36 36 34 33 34 33 33 35 36

ECMWFFLT1_sfc_temp_141.txt.gz
Temp
71 71 71 72 72 71 70 69 68 68 67 67 67 67 69 70 70 71 71 72 71 71 72 72 72 72 72 71 72 72 71 71 71 71 72 72 72 72 71 71 71 70 69 69 69 69 69 69 70 70 69 68 66 66 65 66 66 66 65 66 65 65
71 71 70 69 68 67 66 66 65 65 66 66 66 66 67 68 68 70 70 71 71 71 71 72 72 72 71 71 71 71 70 71 71 71 71 71 72 72 71 71 70 69 69 68 69 68 69 68 69 69 68 68 66 65 64 65 65 64 64 64 65 64
69 70 70 67 66 65 64 63 62 63 64 64 65 64 65 65 66 67 68 69 70 69 70 70 71 71 71 71 71 70 70 71 71 71 71 72 71 71 71 70 70 70 69 69 68 68 68 68 68 68 68 67 65 65 64 64 65 64 64 63 63 64
68 68 68 66 65 65 66 65 64 63 62 63 63 63 63 64 65 65 66 68 68 69 69 70 70 71 71 70 70 69 70 70 70 71 71 70 71 71 70 70 70 70 69 69 68 68 68 68 68 68 68 66 65 64 64 64 64 63 63 63 62 62
66 66 66 66 66 66 66 65 63 62 62 62 62 61 62 63 64 65 66 66 67 67 68 69 69 70 69 69 69 69 69 69 70 70 69 69 69 70 70 70 70 69 69 68 67 67 67 67 67 67 67 66 65 64 63 63 63 62 62 61 61 61
66 66 66 67 67 66 66 65 64 63 62 61 60 61 61 62 63 64 64 64 65 66 67 67 68 68 68 67 68 68 68 69 69 69 69 69 69 68 69 69 69 68 68 67 66 66 66 66 66 66 66 66 65 64 63 63 63 63 63 62 61 61
65 66 67 67 68 67 66 66 65 64 63 62 60 60 61 61 62 61 62 62 62 63 64 65 66 66 66 66 67 67 67 67 68 68 68 68 67 68 68 68 67 67 67 66 66 66 65 65 66 66 66 65 65 64 63 63 63 62 62 62 61 55
64 65 68 68 69 69 67 66 65 64 63 63 61 60 60 60 59 59 59 60 60 61 62 63 64 64 65 65 65 66 66 67 67 67 67 67 67 66 66 66 67 66 66 65 65 65 65 65 65 65 65 65 65 64 64 63 62 62 61 61 61 61
66 67 67 68 68 69 68 65 64 64 63 63 62 60 58 58 58 57 57 58 58 59 60 62 62 63 63 64 64 65 65 65 65 65 65 66 65 65 64 65 65 65 65 65 65 64 65 65 65 65 64 64 64 63 63 62 61 61 60 60 59 59
67 67 67 68 68 68 68 68 65 64 63 63 62 60 57 56 56 56 56 57 57 58 59 61 62 62 62 62 63 63 63 63 63 63 64 64 64 63 63 63 63 63 63 64 64 64 63 63 63 63 63 63 62 62 60 60 59 58 58 57 58 58
68 69 69 68 67 67 67 67 68 67 66 65 63 60 59 58 56 56 56 56 56 57 59 60 60 61 60 60 60 59 60 60 61 61 61 62 62 61 62 62 61 60 60 60 60 61 61 60 60 61 61 61 60 60 59 59 58 57 56 57 57 57
69 69 69 68 68 66 66 66 66 66 65 66 64 62 59 57 56 56 56 56 56 57 58 59 58 58 58 57 57 57 58 58 59 59 58 58 58 58 58 58 58 58 58 57 58 58 58 58 59 51 50 51 58 58 58 57 57 56 56 55 55 55
68 69 69 67 65 65 64 65 65 64 65 64 64 62 59 58 57 57 57 56 58 58 58 56 55 55 55 55 55 55 55 55 55 55 54 55 55 55 54 53 53 54 55 55 56 56 56 56 56 49 49 49 49 54 57 56 56 56 56 55 55 54
67 68 66 63 64 64 63 63 62 61 62 62 61 60 59 58 57 57 57 58 59 58 58 57 56 55 54 53 53 53 52 51 50 50 50 50 48 49 48 49 50 51 52 53 54 54 55 55 48 48 48 48 48 47 53 56 56 56 55 55 55 54
67 66 63 63 63 62 62 61 59 59 60 60 60 59 58 58 58 58 58 58 58 59 59 58 57 56 56 55 53 52 50 48 46 46 46 46 46 43 45 47 48 48 49 50 51 51 53 53 49 47 47 47 47 47 48 54 55 55 55 55 54 53
65 64 63 62 62 61 60 59 59 59 59 59 59 58 57 57 58 58 58 57 58 58 58 57 56 55 55 53 52 50 50 48 47 48 47 46 44 44 44 43 44 45 46 48 48 49 51 51 48 47 46 46 46 46 46 51 54 54 54 53 53 52
61 60 60 60 59 59 59 58 59 58 58 58 56 57 57 57 57 57 57 57 57 57 57 57 56 55 53 52 51 50 49 48 48 47 47 47 46 45 44 43 43 44 44 44 46 47 47 50 46 46 45 45 45 45 45 50 52 52 53 53 51 50
58 58 57 58 58 58 59 57 57 56 56 55 55 55 55 56 56 56 56 57 57 57 58 56 55 54 53 52 51 50 49 48 48 47 46 45 45 44 43 42 42 42 42 43 44 44 45 46 45 44 44 44 45 44 46 48 50 50 51 51 49 48
57 57 57 57 57 57 56 55 54 55 55 55 56 54 54 54 55 56 56 56 57 56 56 56 54 52 52 51 50 50 48 48 47 46 43 44 42 43 42 43 42 43 43 42 42 43 44 44 44 43 43 43 44 44 46 47 47 47 48 48 48 47
56 57 56 56 56 56 54 52 51 52 53 54 53 53 53 53 54 56 55 55 55 55 55 54 54 51 50 50 48 48 49 49 49 45 43 45 44 43 44 44 42 42 43 41 41 42 42 43 42 42 42 42 42 43 45 46 45 45 45 46 46 46
53 53 53 54 53 54 52 50 49 51 51 52 52 52 52 53 55 55 55 55 55 54 53 52 52 51 49 48 48 48 46 44 43 44 43 44 44 43 44 41 41 41 40 42 41 38 40 42 41 41 42 42 42 42 45 45 44 44 44 45 45 44
52 52 53 52 52 51 48 49 49 48 50 50 50 50 51 53 55 55 55 55 54 53 52 52 50 49 48 44 46 43 44 44 44 42 42 42 42 42 43 42 40 39 40 40 41 40 41 41 42 42 41 41 42 42 42 43 43 43 43 43 44 44
53 52 53 53 53 52 50 49 48 47 48 48 48 49 51 53 54 53 53 53 52 51 51 51 49 47 45 44 44 43 42 43 42 43 41 41 41 41 41 39 38 38 39 39 39 40 40 41 40 40 40 41 41 41 41 42 42 44 43 43 42 43
50 50 50 51 52 50 50 48 47 47 48 47 48 49 51 52 52 52 51 51 50 50 48 47 46 42 42 41 40 39 41 41 40 40 40 42 41 38 37 37 38 38 39 40 39 39 40 39 38 40 39 40 40 41 41 41 41 42 43 43 43 43
49 49 49 50 50 49 49 46 44 47 47 47 48 50 51 51 50 50 50 49 46 42 43 41 40 40 40 40 39 38 39 40 39 38 38 38 37 37 36 37 37 37 38 38 40 40 42 42 41 38 38 38 39 40 40 40 41 41 41 43 43 43
48 48 48 48 48 48 47 47 46 45 43 46 49 49 49 49 49 48 45 41 42 42 40 39 39 40 40 39 39 39 38 39 38 39 40 40 39 39 39 40 39 39 38 38 40 40 42 42 42 39 37 38 38 40 40 41 40 40 40 41 43 45
47 48 47 48 47 48 47 47 45 40 42 46 48 48 48 48 44 41 40 39 39 39 39 39 39 39 39 38 39 39 40 39 38 40 40 39 39 40 39 40 40 40 40 41 40 42 43 43 43 43 40 36 37 38 40 40 40 41 41 40 41 43
46 45 45 47 47 47 44 45 46 40 43 48 47 48 46 42 38 38 38 38 38 38 38 38 39 40 39 39 40 40 41 40 40 41 42 42 41 40 39 40 40 40 39 40 41 41 42 42 43 42 42 37 35 36 37 38 39 38 38 38 40 39
45 44 44 44 45 47 46 43 44 45 46 46 46 44 41 37 37 37 38 38 39 39 39 39 40 42 41 40 41 42 43 44 43 41 41 42 42 41 41 41 40 40 40 39 41 40 41 41 42 41 42 42 40 38 37 37 37 36 36 37 38 38
41 43 42 43 46 45 44 45 45 44 42 41 41 39 38 37 37 38 38 38 39 40 40 40 39 39 42 42 41 43 44 43 42 42 42 42 42 42 42 42 42 41 41 41 41 41 41 41 42 42 42 42 41 40 40 38 38 38 38 38 39 39
39 41 41 42 45 45 41 42 42 42 41 40 39 38 36 37 37 37 37 38 39 40 40 41 40 41 42 42 41 43 42 43 42 42 42 42 43 42 42 42 42 42 42 42 42 41 41 41 41 42 41 41 40 39 39 38 38 39 39 38 39 37
39 40 40 43 44 43 42 42 43 42 41 40 39 38 37 37 38 38 39 39 40 40 41 41 42 41 41 41 42 41 42 40 40 41 42 42 40 39 39 40 41 43 43 42 43 42 41 41 43 42 42 40 39 39 39 38 39 39 38 38 39 37
39 39 38 41 42 41 41 41 43 42 41 40 40 38 38 37 38 40 40 40 40 40 40 40 41 41 41 41 41 41 41 41 43 40 39 39 39 39 39 38 38 38 38 39 40 41 41 40 40 39 40 39 38 38 38 38 38 38 38 39 37 36
39 40 40 43 42 40 41 40 42 42 41 41 40 38 37 37 38 38 40 40 40 40 40 41 41 40 40 41 42 40 41 41 40 42 41 39 38 38 37 37 38 37 37 38 37 37 39 39 39 39 38 38 37 37 37 38 38 38 38 38 38 36
42 43 43 43 41 40 40 40 41 41 39 38 38 37 36 36 36 37 38 38 39 40 40 40 40 40 40 39 39 39 40 40 40 39 40 43 39 37 37 37 37 36 37 37 37 37 37 37 38 39 39 37 37 37 37 37 38 38 39 38 36 36
42 42 43 41 40 39 39 38 38 38 38 36 36 36 35 36 36 36 38 38 38 38 39 39 39 39 40 40 40 40 39 39 39 39 39 39 40 41 40 37 36 36 36 36 36 36 36 36 36 36 37 37 37 37 37 37 37 38 39 37 35 36
40 39 40 38 37 37 36 36 37 37 36 35 35 35 35 36 36 37 37 36 36 38 39 39 40 39 40 40 39 39 39 39 39 39 38 39 38 38 38 40 41 37 34 36 36 36 36 36 36 36 36 36 37 37 37 37 36 35 35 36 36 36
35 36 37 36 37 36 35 36 37 37 36 34 34 35 35 36 36 36 38 38 38 38 38 39 38 39 38 38 39 38 38 38 38 38 38 39 38 38 38 39 40 41 38 35 34 35 35 36 35 36 36 36 36 37 37 35 34 35 35 35 35 36

ECMWFFLT1_sfc_temp_144.txt.gz
Temp
59 59 59 59 58 57 56 55 55 54 55 55 55 56 56 56 58 58 60 60 62 63 62 62 63 63 63 63 63 62 62 62 62 62 63 62 62 63 62 62 62 62 62 62 62 62 62 63 63 62 62 62 61 61 61 62 62 62 62 62 61 62
58 59 59 58 57 55 53 53 52 53 53 53 53 54 54 55 56 56 57 58 59 60 59 60 61 62 62 62 62 62 62 62 61 61 61 62 62 62 62 62 61 61 61 61 61 61 61 62 62 62 62 62 62 61 60 61 61 61 61 62 63 63
59 58 58 57 54 52 50 51 52 52 52 52 52 53 52 53 54 55 55 55 57 57 58 59 59 60 61 61 62 62 62 62 61 61 62 60 61 61 61 61 61 61 61 61 61 61 61 61 62 62 62 62 61 61 61 61 60 60 61 61 61 63
56 57 55 53 52 53 54 55 54 53 52 51 50 51 51 52 53 53 54 54 55 55 56 57 58 59 59 60 61 61 60 60 60 61 60 61 61 61 61 61 61 61 61 61 61 61 62 62 62 62 62 61 61 60 61 61 59 59 60 60 60 60
54 55 54 53 54 55 55 55 54 53 52 52 51 51 50 51 51 52 53 54 54 55 56 56 57 58 58 59 59 58 59 59 59 60 60 60 59 60 61 61 61 61 60 61 60 61 61 61 61 61 61 60 60 60 60 61 59 59 59 59 59 60
53 53 53 54 54 55 55 56 54 53 52 51 51 50 49 50 51 51 52 52 53 53 54 54 55 55 55 56 58 57 56 58 58 59 58 59 58 58 59 60 61 60 60 59 59 59 60 59 59 59 59 61 60 59 60 59 59 60 59 59 59 59
53 54 53 54 54 54 56 56 56 54 53 52 51 50 50 50 50 50 50 50 50 50 51 51 51 52 52 53 53 53 53 54 57 58 58 57 58 59 58 58 58 58 58 59 59 59 58 58 59 59 59 59 59 59 59 59 59 60 60 60 60 55
50 51 51 52 53 55 56 56 56 54 53 52 52 51 49 48 49 48 47 46 47 46 47 48 48 49 49 50 50 51 52 54 54 55 56 57 59 56 56 57 56 57 56 56 57 57 57 57 56 57 58 58 58 58 59 59 59 60 60 60 60 60
51 53 54 53 52 53 55 55 55 53 52 51 50 49 48 47 47 46 46 45 45 46 45 46 47 47 48 48 48 49 50 50 50 51 52 51 52 52 51 51 53 52 53 55 55 57 57 57 56 57 57 57 57 57 57 57 57 58 59 59 59 59
53 53 53 53 53 54 54 54 54 54 53 51 49 48 48 48 47 45 45 45 45 45 44 45 46 47 47 47 47 47 47 47 47 48 48 48 50 50 49 50 53 52 52 53 54 56 55 55 56 56 56 57 57 56 56 56 56 56 57 57 58 58
53 54 56 56 52 52 53 53 52 50 48 50 47 47 49 48 47 45 45 45 45 44 45 45 47 47 46 46 46 46 46 46 45 46 47 47 49 52 51 49 49 50 52 53 52 53 52 54 56 56 55 55 54 56 57 57 56 56 56 56 56 57
54 55 56 52 51 52 53 52 51 50 51 50 49 47 48 47 45 45 45 45 45 44 45 46 47 47 46 46 45 44 43 43 43 44 44 44 44 45 47 46 46 47 49 50 51 52 53 53 55 49 48 48 54 54 56 55 55 55 55 55 55 55
55 56 52 50 52 51 51 51 52 51 49 48 48 49 48 47 46 45 44 44 44 45 45 46 45 45 45 44 44 43 44 44 43 43 42 42 43 44 43 43 45 46 47 48 50 51 53 54 54 49 49 49 48 51 55 55 55 55 55 55 54 54
56 54 49 51 49 47 47 48 48 47 48 47 47 47 45 46 45 45 45 44 44 45 46 45 44 43 41 41 41 41 40 40 41 41 41 41 41 42 40 41 44 45 45 46 47 48 49 51 47 48 48 48 48 47 52 55 55 55 55 55 55 55
52 50 49 47 48 46 47 46 44 45 46 45 46 45 44 45 45 45 45 44 45 45 45 45 44 43 42 41 41 40 40 39 38 38 38 39 39 37 39 41 41 42 42 43 45 45 46 48 46 47 46 46 46 47 48 54 54 54 54 55 54 54
50 49 47 46 46 46 46 45 45 46 44 45 44 44 43 44 43 44 44 43 44 44 44 44 43 42 41 40 39 39 38 38 39 39 38 38 37 37 38 36 37 39 40 41 42 42 44 45 44 45 45 45 45 45 46 50 52 53 53 54 54 54
48 45 44 45 46 45 43 43 44 43 42 44 44 43 44 44 43 42 42 42 42 42 41 42 41 40 40 39 38 37 37 38 39 38 39 40 38 39 39 38 37 38 38 38 39 40 41 43 43 44 44 44 45 45 44 49 50 51 52 53 53 53
45 45 45 46 44 42 42 45 43 42 42 40 44 43 43 44 44 45 43 43 41 41 41 42 40 39 38 38 38 38 38 37 38 39 38 38 37 38 36 36 35 37 38 38 37 38 40 40 42 42 43 43 44 44 45 47 48 49 50 50 51 51
44 44 44 45 43 42 44 44 43 42 40 40 41 40 40 41 43 45 44 44 42 42 41 41 41 40 39 39 39 39 39 39 39 38 38 38 37 37 36 37 37 37 37 37 37 37 38 38 39 41 42 42 43 43 45 46 46 47 48 49 49 49
42 43 43 43 41 41 42 42 42 41 40 40 39 38 38 38 40 41 42 44 43 42 41 41 40 39 38 37 38 39 39 38 38 38 38 37 38 38 39 38 38 37 36 37 37 37 38 39 38 40 41 41 42 41 44 44 45 45 44 45 46 47
42 42 41 41 42 43 41 41 40 40 40 39 38 37 37 39 40 40 40 41 42 42 42 42 41 40 38 37 38 38 38 37 37 37 36 36 37 37 38 37 37 37 37 36 37 36 37 38 38 39 40 41 41 40 42 42 43 42 43 44 44 45
41 41 41 41 43 42 41 41 39 38 39 38 38 37 38 39 40 40 40 39 39 40 40 40 40 39 38 37 38 37 37 37 37 37 37 36 36 36 36 35 36 36 37 36 36 36 36 37 37 37 40 40 40 41 40 41 41 40 41 42 42 43
41 41 43 44 43 40 40 40 38 37 37 37 37 38 39 40 38 38 38 37 37 37 38 38 37 37 36 36 37 37 36 36 36 36 36 36 36 35 35 35 35 36 36 36 36 36 36 36 36 37 39 40 40 41 40 40 40 41 41 41 40 41
39 39 38 40 40 39 38 38 38 36 36 37 37 36 37 38 37 36 36 36 36 37 37 37 37 36 37 36 36 36 35 35 35 35 35 34 34 35 35 35 35 35 36 37 36 36 36 36 36 36 37 39 40 40 40 39 39 40 40 40 40 41
38 40 40 38 38 38 38 38 37 35 35 37 36 35 36 37 37 37 36 35 36 35 36 36 36 36 37 36 36 35 35 35 34 34 33 34 34 35 35 35 35 35 36 37 38 37 37 37 36 36 36 37 39 40 40 40 39 40 39 39 39 40
36 37 37 37 36 37 36 38 37 35 35 35 37 35 35 36 37 36 35 33 33 34 35 35 35 35 35 35 35 34 34 35 35 34 35 35 34 35 35 36 35 35 35 36 38 39 37 37 36 35 36 36 38 39 40 40 40 40 38 39 39 40
37 35 36 34 35 34 35 36 37 34 33 34 34 35 36 36 35 34 33 33 33 34 35 34 34 35 35 35 35 35 35 35 35 35 35 33 35 34 35 36 35 35 35 36 37 39 39 38 36 36 36 36 37 39 40 40 40 40 40 38 38 39
36 35 34 33 34 35 35 34 35 35 35 34 34 34 35 34 33 33 33 32 33 34 35 34 34 35 35 35 35 35 35 35 35 35 36 34 34 34 34 35 35 34 34 35 37 38 39 39 38 36 36 35 35 35 37 38 38 37 37 37 37 37
35 33 33 33 33 34 33 33 33 34 34 34 34 34 33 32 32 32 32 34 34 34 35 35 35 36 36 35 35 36 35 35 35 36 36 36 35 35 35 35 35 35 34 35 37 37 38 38 37 35 35 35 34 34 35 35 35 35 35 36 36 36
33 32 31 32 32 33 33 33 32 33 34 33 32 32 32 32 31 31 31 33 34 34 34 34 35 35 35 35 36 36 36 35 36 36 37 37 35 36 37 37 36 36 36 36 37 37 37 38 38 36 36 36 35 35 33 34 35 35 36 36 36 37
32 31 31 31 31 32 32 31 31 33 33 33 32 31 31 33 32 30 29 31 32 33 34 35 35 34 35 36 36 35 36 36 36 36 37 37 35 36 37 37 38 37 36 36 37 36 37 38 39 37 37 35 37 35 35 34 34 34 35 36 37 36
31 30 30 30 31 31 31 31 32 32 31 30 30 30 31 33 32 30 31 32 31 33 34 34 34 34 34 33 34 36 37 36 37 38 37 38 36 37 38 39 39 39 37 37 38 37 37 39 41 41 41 40 39 39 39 39 39 39 37 37 38 36
30 30 29 30 30 31 29 30 31 31 30 30 30 30 30 29 31 31 31 32 32 32 33 33 33 33 33 33 33 34 35 36 37 38 38 38 37 38 38 38 38 39 39 38 38 39 40 39 39 39 39 39 39 39 39 39 39 39 39 39 37 36
28 29 30 30 30 29 29 29 30 29 30 29 29 29 29 29 31 31 31 31 31 33 33 31 32 33 33 33 32 33 33 34 34 37 38 39 38 38 37 37 38 38 38 38 38 37 38 39 39 39 38 38 38 38 38 38 38 39 39 39 39 36
30 29 29 30 30 30 30 30 30 30 29 29 29 29 30 30 31 31 31 31 32 33 33 33 32 33 32 33 33 33 33 33 33 33 34 38 38 39 39 38 38 38 38 38 38 38 37 38 38 39 38 38 38 37 37 37 38 38 39 38 36 36
28 28 29 29 29 29 29 29 29 28 31 30 31 30 31 31 30 30 30 31 32 32 33 32 32 32 32 32 32 33 33 33 33 33 33 33 34 36 38 38 38 38 38 37 37 37 37 37 37 37 37 37 37 37 37 37 36 38 39 38 36 36
28 28 29 31 31 30 30 29 29 29 29 30 31 29 27 28 28 30 32 33 33 32 32 32 32 32 32 32 32 32 32 32 32 33 32 32 32 32 33 34 37 37 37 37 37 37 37 36 37 37 37 37 37 37 37 37 35 34 35 36 36 36
27 27 28 29 29 29 29 29 29 28 27 26 25 26 29 30 30 30 30 31 32 31 32 32 32 32 31 31 32 32 32 32 32 32 32 32 32 32 33 34 35 36 35 37 37 37 37 37 37 37 37 36 36 36 36 33 33 34 34 34 35 35